EW6745 Weather Reports


time (UTC)temp
F
wind
direction
speed
knots
gust
knots
rain 1hr
in
rain 24hr
in
rain mn
in
humidity
%
barometer
mb
20260906213022 87 104 4.3 10.4 0.00 0.00 0.00 36 1018.6
20260906212524 87 197 3.5 10.4 0.00 0.00 0.00 37 1018.6
20260906212033 87 151 6.1 10.4 0.00 0.00 0.00 35 1018.6
20260906211515 87 134 5.2 11.3 0.00 0.00 0.00 35 1018.7
20260906211024 87 218 5.2 11.3 0.00 0.00 0.00 36 1018.7
20260906210545 87 137 5.2 11.3 0.00 0.00 0.00 34 1018.8
20260906210013 87 141 6.1 10.4 0.00 0.00 0.00 35 1018.9
20260906205514 87 232 5.2 10.4 0.00 0.00 0.00 36 1018.7
20260906205017 86 171 5.2 10.4 0.00 0.00 0.00 36 1018.9
20260906204526 86 166 6.1 12.2 0.00 0.00 0.00 36 1018.9
20260906204033 86 139 6.1 12.2 0.00 0.00 0.00 37 1019.0
20260906203536 86 140 5.2 10.4 0.00 0.00 0.00 37 1019.1
20260906203021 86 194 6.1 10.4 0.00 0.00 0.00 37 1019.2
20260906202529 86 276 6.1 11.3 0.00 0.00 0.00 36 1019.2
20260906202029 86 144 5.2 11.3 0.00 0.00 0.00 37 1019.3
20260906201538 86 153 5.2 9.6 0.00 0.00 0.00 36 1019.4
20260906201040 86 213 5.2 9.6 0.00 0.00 0.00 36 1019.5
20260906200528 85 180 6.1 11.3 0.00 0.00 0.00 37 1019.5
20260906200030 85 131 4.3 11.3 0.00 0.00 0.00 39 1019.5
20260906195531 85 180 7.0 13.0 0.00 0.00 0.00 37 1019.5
20260906195019 85 139 6.1 13.0 0.00 0.00 0.00 36 1019.5
20260906194521 85 131 6.1 8.7 0.00 0.00 0.00 39 1019.5
20260906194023 84 144 4.3 18.2 0.00 0.00 0.00 38 1019.6
20260906193532 84 140 8.7 18.2 0.00 0.00 0.00 38 1019.5
20260906193014 85 129 7.0 13.9 0.00 0.00 0.00 39 1019.6
20260906192516 84 178 3.5 13.0 0.00 0.00 0.00 39 1019.8
20260906192024 84 189 6.1 13.0 0.00 0.00 0.00 39 1019.9
20260906191545 84 144 8.7 13.0 0.00 0.00 0.00 40 1020.0
20260906191053 84 164 6.1 11.3 0.00 0.00 0.00 40 1020.1
20260906190514 84 194 5.2 13.0 0.00 0.00 0.00 42 1020.2
20260906190042 84 164 5.2 13.0 0.00 0.00 0.00 40 1020.1
20260906185530 84 134 8.7 13.0 0.00 0.00 0.00 40 1020.2
20260906185031 84 164 6.1 11.3 0.00 0.00 0.00 41 1020.3
20260906184513 84 180 5.2 10.4 0.00 0.00 0.00 40 1020.5
20260906184021 84 176 7.0 10.4 0.00 0.00 0.00 38 1020.5
20260906183523 84 173 4.3 7.8 0.00 0.00 0.00 40 1020.5
20260906183027 84 314 2.6 9.6 0.00 0.00 0.00 38 1020.7
20260906182513 84 152 4.3 10.4 0.00 0.00 0.00 39 1020.9
20260906182023 83 173 4.3 10.4 0.00 0.00 0.00 38 1020.9
20260906181524 83 197 4.3 8.7 0.00 0.00 0.00 40 1020.9
20260906181026 82 134 5.2 9.6 0.00 0.00 0.00 40 1021.0
20260906180535 82 157 3.5 7.0 0.00 0.00 0.00 40 1021.0
20260906180016 82 207 2.6 7.8 0.00 0.00 0.00 40 1021.0
20260906175545 82 179 5.2 7.8 0.00 0.00 0.00 40 1021.3
20260906175025 82 104 1.7 7.0 0.00 0.00 0.00 40 1021.3
20260906174527 82 98 2.6 6.1 0.00 0.00 0.00 42 1021.5
20260906174037 81 137 1.7 6.1 0.00 0.00 0.00 41 1021.5
20260906173518 80 164 2.6 7.0 0.00 0.00 0.00 43 1021.6
20260906173029 80 164 3.5 7.0 0.00 0.00 0.00 43 1021.6
20260906172531 80 72 1.7 6.1 0.00 0.00 0.00 44 1021.5
20260906172038 79 330 1.7 4.3 0.00 0.00 0.00 44 1021.7
20260906171520 78 94 2.6 5.2 0.00 0.00 0.00 46 1021.7
20260906171021 78 67 1.7 6.1 0.00 0.00 0.00 46 1021.7
20260906170529 77 347 3.5 6.1 0.00 0.00 0.00 46 1021.7
20260906170031 77 330 3.5 6.1 0.00 0.00 0.00 47 1021.7
20260906165540 76 268 2.6 5.2 0.00 0.00 0.00 50 1021.9
20260906165021 76 280 2.6 6.1 0.00 0.00 0.00 55 1022.0
20260906164522 75 189 3.5 6.1 0.00 0.00 0.00 54 1022.0
20260906164031 75 236 1.7 5.2 0.00 0.00 0.00 56 1022.0
20260906163513 74 268 1.7 6.1 0.00 0.00 0.00 58 1022.0
20260906163014 74 238 3.5 6.1 0.00 0.00 0.00 59 1022.2
20260906162544 73 286 3.5 6.1 0.00 0.00 0.00 60 1022.1
20260906162032 72 205 3.5 7.0 0.00 0.00 0.00 62 1022.1
20260906161514 72 223 2.6 7.0 0.00 0.00 0.00 63 1022.1
20260906161044 71 172 2.6 7.0 0.00 0.00 0.00 65 1022.2
20260906160525 71 167 2.6 7.0 0.00 0.00 0.00 64 1022.3
20260906160027 72 225 3.5 7.0 0.00 0.00 0.00 64 1022.4
20260906155536 72 171 3.5 9.6 0.00 0.00 0.00 65 1022.4
20260906155100 72 214 3.5 9.6 0.00 0.00 0.00 65 1022.4
20260906154521 71 157 3.5 8.7 0.00 0.00 0.00 67 1022.3
20260906154020 71 236 4.3 8.7 0.00 0.00 0.00 67 1022.2
20260906153529 71 232 5.2 7.8 0.00 0.00 0.00 68 1022.2
20260906153030 71 148 3.5 7.0 0.00 0.00 0.00 69 1022.3
20260906152513 70 222 3.5 7.8 0.00 0.00 0.00 70 1022.2
20260906152022 70 182 3.5 7.0 0.00 0.00 0.00 69 1022.3
20260906151524 70 186 4.3 7.0 0.00 0.00 0.00 71 1022.3
20260906151032 69 180 3.5 7.0 0.00 0.00 0.00 71 1022.3
20260906150514 69 220 4.3 7.0 0.00 0.00 0.00 73 1022.2
20260906150016 68 209 4.3 7.0 0.00 0.00 0.00 72 1022.2
20260906145518 68 212 3.5 7.8 0.00 0.00 0.00 74 1022.2
20260906145027 67 155 3.5 8.7 0.00 0.00 0.00 74 1022.2
20260906144529 67 220 5.2 8.7 0.00 0.00 0.00 74 1022.3
20260906144037 66 200 3.5 7.8 0.00 0.00 0.00 76 1022.3
20260906143516 66 225 6.1 7.8 0.00 0.00 0.00 76 1022.2
20260906143018 66 230 4.3 7.8 0.00 0.00 0.00 76 1022.2
20260906142527 66 219 5.2 7.8 0.00 0.00 0.00 76 1022.2
20260906142029 66 255 4.3 7.8 0.00 0.00 0.00 77 1022.2
20260906141530 65 243 4.3 7.8 0.00 0.00 0.00 78 1022.2
20260906141038 65 239 5.2 7.0 0.00 0.00 0.00 78 1022.2
20260906140519 65 214 3.5 7.0 0.00 0.00 0.00 79 1022.3
20260906140021 64 245 4.3 7.8 0.00 0.00 0.00 81 1022.2
20260906135530 64 232 5.2 7.8 0.00 0.00 0.00 82 1022.3
20260906135031 63 243 5.2 7.8 0.00 0.00 0.00 84 1022.2
20260906134521 63 243 5.2 7.0 0.00 0.00 0.00 85 1022.2
20260906134021 62 248 5.2 7.0 0.00 0.00 0.00 87 1022.0
20260906133550 62 232 4.3 6.1 0.00 0.00 0.00 89 1022.0
20260906133058 61 249 4.3 6.1 0.00 0.00 0.00 90 1022.2
20260906132518 60 221 4.3 7.0 0.00 0.00 0.00 91 1022.2
20260906132020 60 265 5.2 7.0 0.00 0.00 0.00 92 1022.2
20260906131529 59 234 3.5 5.2 0.00 0.00 0.00 92 1022.1
20260906131029 59 238 4.3 5.2 0.00 0.00 0.00 93 1022.1
20260906130531 59 251 3.5 4.3 0.00 0.00 0.00 92 1022.2
20260906130040 58 234 3.5 5.2 0.00 0.00 0.00 92 1022.2
20260906125521 58 248 3.5 5.2 0.00 0.00 0.00 92 1022.2
20260906125051 58 234 2.6 4.3 0.00 0.00 0.00 92 1022.2
20260906124539 58 239 2.6 4.3 0.00 0.00 0.00 91 1022.2
20260906124020 58 202 2.6 5.2 0.00 0.00 0.00 91 1022.0
20260906123521 58 249 3.5 5.2 0.00 0.00 0.00 91 1022.0
20260906123031 58 249 3.5 5.2 0.00 0.00 0.00 91 1022.0
20260906122532 58 247 3.5 5.2 0.00 0.00 0.00 90 1022.0
20260906122014 59 251 3.5 5.2 0.00 0.00 0.00 90 1022.0
20260906121543 59 253 2.6 5.2 0.00 0.00 0.00 89 1021.9
20260906121031 59 245 3.5 5.2 0.00 0.00 0.00 90 1021.8
20260906120513 59 258 2.6 4.3 0.00 0.00 0.00 89 1021.9
20260906120015 59 240 2.6 5.2 0.00 0.00 0.00 88 1021.9
20260906115522 60 243 3.5 5.2 0.00 0.00 0.00 88 1021.8
20260906115044 60 247 2.6 5.2 0.00 0.00 0.00 87 1021.9
20260906114514 60 255 2.6 5.2 0.00 0.00 0.00 86 1021.8
20260906114013 60 260 3.5 6.1 0.00 0.00 0.00 86 1021.8
20260906113522 60 245 4.3 6.1 0.00 0.00 0.00 85 1021.9
20260906113025 61 259 3.5 5.2 0.00 0.00 0.00 85 1021.8
20260906112532 61 245 3.5 5.2 0.00 0.00 0.00 85 1021.8
20260906112013 61 226 2.6 5.2 0.00 0.00 0.00 84 1021.8
20260906111514 61 223 3.5 6.1 0.00 0.00 0.00 84 1021.8
20260906111042 62 232 4.3 6.1 0.00 0.00 0.00 84 1021.7
20260906110522 62 212 4.3 6.1 0.00 0.00 0.00 84 1021.7
20260906110048 62 209 3.5 6.1 0.00 0.00 0.00 84 1021.8
20260906105527 63 204 3.5 8.7 0.00 0.00 0.00 84 1021.9
20260906105013 63 202 3.5 9.6 0.00 0.00 0.00 84 1021.9
20260906104522 63 207 5.2 9.6 0.00 0.00 0.00 84 1021.9
20260906104024 63 218 5.2 7.8 0.00 0.00 0.00 85 1021.9
20260906103533 63 223 4.3 7.0 0.00 0.00 0.00 86 1021.8
20260906103015 63 230 4.3 6.1 0.00 0.00 0.00 86 1021.7
20260906102516 63 220 4.3 6.1 0.00 0.00 0.00 86 1021.7
20260906102026 62 226 3.5 6.1 0.00 0.00 0.00 86 1021.7
20260906101527 62 270 3.5 5.2 0.00 0.00 0.00 85 1021.7
20260906101039 62 248 2.6 4.3 0.00 0.00 0.00 85 1021.7
20260906100518 63 232 2.6 4.3 0.00 0.00 0.00 85 1021.8
20260906100021 63 232 2.6 5.2 0.00 0.00 0.00 86 1021.7
20260906095522 63 245 3.5 5.2 0.00 0.00 0.00 86 1021.7
20260906095031 63 245 3.5 6.1 0.00 0.00 0.00 86 1021.5
20260906094513 62 236 4.3 6.1 0.00 0.00 0.00 87 1021.5
20260906094015 62 223 3.5 5.2 0.00 0.00 0.00 87 1021.3
20260906093524 61 230 3.5 5.2 0.00 0.00 0.00 88 1021.3
20260906093054 59 237 2.6 4.3 0.00 0.00 0.00 88 1021.3
20260906092515 58 189 0.0 1.7 0.00 0.00 0.00 83 1021.3
20260906092017 58 189 0.0 1.7 0.00 0.00 0.00 83 1021.3
20260906091547 58 276 0.9 1.7 0.00 0.00 0.00 83 1021.3
20260906091027 58 276 0.9 1.7 0.00 0.00 0.00 85 1021.2
20260906090535 58 320 0.9 1.7 0.00 0.00 0.00 84 1021.2
20260906090017 58 232 0.9 1.7 0.00 0.00 0.00 84 1021.3
20260906085520 58 223 0.9 1.7 0.00 0.00 0.00 84 1021.4
20260906085029 58 173 0.9 2.6 0.00 0.00 0.00 84 1021.4
20260906084530 58 250 0.9 3.5 0.00 0.00 0.00 84 1021.5
20260906084031 57 245 2.6 3.5 0.00 0.00 0.00 84 1021.4
20260906083513 57 148 0.9 1.7 0.00 0.00 0.00 84 1021.4
20260906083022 57 112 0.9 1.7 0.00 0.00 0.00 83 1021.4
20260906082524 57 20 0.9 1.7 0.00 0.00 0.00 83 1021.5
20260906082032 57 104 0.0 1.7 0.00 0.00 0.00 82 1021.7
20260906081513 58 216 0.0 1.7 0.00 0.00 0.00 82 1021.7
20260906081036 58 216 0.9 1.7 0.00 0.00 0.00 82 1021.8
20260906080518 58 169 0.9 1.7 0.00 0.00 0.00 82 1021.7
20260906080020 58 260 1.7 1.7 0.00 0.00 0.00 83 1021.7
20260906075521 58 189 0.9 2.6 0.00 0.00 0.00 83 1021.8
20260906075029 58 62 0.0 2.6 0.00 0.00 0.00 83 1021.7
20260906074600 58 327 0.9 1.7 0.00 0.00 0.00 83 1021.7
20260906074020 58 302 0.9 1.7 0.00 0.00 0.00 84 1021.8
20260906073521 58 62 0.0 2.6 0.00 0.00 0.00 84 1021.8
20260906073052 58 261 0.0 2.6 0.00 0.00 0.00 83 1021.7
20260906072512 58 196 0.9 2.6 0.00 0.00 0.00 82 1021.7
20260906072013 59 189 0.0 1.7 0.00 0.00 0.00 83 1021.6
20260906071520 59 293 0.0 3.5 0.00 0.00 0.00 83 1021.7
20260906071022 59 131 0.0 5.2 0.00 0.00 0.00 83 1021.7
20260906070531 58 293 2.6 5.2 0.00 0.00 0.00 84 1021.7
20260906070014 58 247 2.6 4.3 0.00 0.00 0.00 84 1021.7
20260906065514 58 268 2.6 4.3 0.00 0.00 0.00 84 1021.7
20260906065023 58 286 2.6 4.3 0.00 0.00 0.00 83 1021.8
20260906064525 59 290 2.6 4.3 0.00 0.00 0.00 84 1021.8
20260906064054 59 256 2.6 6.1 0.00 0.00 0.00 84 1021.8
20260906063515 58 300 3.5 6.1 0.00 0.00 0.00 84 1021.6
20260906063043 59 284 3.5 5.2 0.00 0.00 0.00 83 1021.5
20260906062524 59 303 2.6 4.3 0.00 0.00 0.00 81 1021.5
20260906062053 60 236 1.7 2.6 0.00 0.00 0.00 80 1021.6
20260906061514 61 276 0.9 1.7 0.00 0.00 0.00 81 1021.7
20260906061015 61 164 0.9 1.7 0.00 0.00 0.00 81 1021.7
20260906060525 61 62 0.0 1.7 0.00 0.00 0.00 80 1021.7
20260906060026 62 309 0.9 2.6 0.00 0.00 0.00 80 1021.7
20260906055535 62 312 1.7 3.5 0.00 0.00 0.00 79 1021.8
20260906055017 63 104 1.7 3.5 0.00 0.00 0.00 80 1021.7
20260906054519 63 137 1.7 3.5 0.00 0.00 0.00 79 1021.5
20260906054021 63 153 1.7 7.0 0.00 0.00 0.00 79 1021.6
20260906053530 63 33 2.6 7.0 0.00 0.00 0.00 79 1021.5
20260906053012 63 141 5.2 7.0 0.00 0.00 0.00 78 1021.4
20260906052514 63 110 3.5 6.1 0.00 0.00 0.00 77 1021.4
20260906052023 64 104 1.7 5.2 0.00 0.00 0.00 75 1021.5
20260906051525 64 65 1.7 5.2 0.00 0.00 0.00 74 1021.4
20260906051033 64 114 1.7 4.3 0.00 0.00 0.00 74 1021.5
20260906050515 64 168 1.7 8.7 0.00 0.00 0.00 73 1021.5
20260906050037 64 94 3.5 8.7 0.00 0.00 0.00 74 1021.5
20260906045523 64 134 2.6 7.8 0.00 0.00 0.00 71 1021.5
20260906045032 64 112 4.3 5.2 0.00 0.00 0.00 68 1021.5
20260906044535 65 160 1.7 3.5 0.00 0.00 0.00 66 1021.3
20260906044039 65 137 1.7 4.3 0.00 0.00 0.00 65 1021.3
20260906043547 65 134 1.7 5.2 0.00 0.00 0.00 62 1021.3
20260906043027 65 96 2.6 6.1 0.00 0.00 0.00 61 1021.3
20260906042555 65 128 2.6 6.1 0.00 0.00 0.00 59 1021.3
20260906042016 66 104 3.5 5.2 0.00 0.00 0.00 58 1021.6
20260906041518 66 131 0.9 5.2 0.00 0.00 0.00 58 1021.3
20260906041027 67 108 4.3 5.2 0.00 0.00 0.00 56 1021.5
20260906040557 68 79 1.7 6.1 0.00 0.00 0.00 55 1021.3
20260906040018 68 104 2.6 6.1 0.00 0.00 0.00 56 1021.4
20260906035519 67 62 2.6 7.0 0.00 0.00 0.00 57 1021.3
20260906035021 67 104 5.2 7.0 0.00 0.00 0.00 49 1021.5
20260906034529 68 62 0.0 2.6 0.00 0.00 0.00 44 1021.1
20260906034030 68 199 1.7 2.6 0.00 0.00 0.00 42 1021.1
20260906033539 69 327 0.0 1.7 0.00 0.00 0.00 42 1021.0
20260906033020 70 104 0.0 1.7 0.00 0.00 0.00 40 1020.9
20260906032529 71 52 0.0 1.7 0.00 0.00 0.00 40 1020.8
20260906032031 72 320 0.9 2.6 0.00 0.00 0.00 38 1020.8
20260906031530 73 320 0.9 2.6 0.00 0.00 0.00 37 1020.7
20260906031018 74 62 0.9 1.7 0.00 0.00 0.00 36 1020.8
20260906030519 74 104 0.0 2.6 0.00 0.00 0.00 35 1020.8
20260906030050 75 320 0.0 4.3 0.00 0.00 0.00 34 1020.8
20260906025529 75 62 1.7 7.0 0.00 0.00 0.00 34 1020.8
20260906025038 75 79 3.5 7.8 0.00 0.00 0.00 34 1020.7
20260906024520 75 75 3.5 11.3 0.00 0.00 0.00 34 1020.7
20260906024022 74 111 3.5 11.3 0.00 0.00 0.00 35 1020.7
20260906023531 74 147 5.2 7.8 0.00 0.00 0.00 36 1020.5
20260906023013 74 128 1.7 6.1 0.00 0.00 0.00 35 1020.5
20260906022522 74 332 2.6 5.2 0.00 0.00 0.00 35 1020.4
20260906022023 75 330 3.5 7.0 0.00 0.00 0.00 35 1020.3
20260906021532 75 315 3.5 7.8 0.00 0.00 0.00 35 1020.3
20260906021013 75 332 4.3 7.8 0.00 0.00 0.00 34 1020.3
20260906020542 75 311 4.3 7.8 0.00 0.00 0.00 34 1020.2
20260906020051 75 323 5.2 7.8 0.00 0.00 0.00 34 1020.2
20260906015533 75 334 4.3 7.8 0.00 0.00 0.00 35 1020.1
20260906015014 76 334 4.3 7.0 0.00 0.00 0.00 35 1020.1
20260906014543 76 312 4.3 8.7 0.00 0.00 0.00 34 1020.1
20260906014024 77 327 5.2 8.7 0.00 0.00 0.00 33 1020.1
20260906013532 77 307 3.5 7.8 0.00 0.00 0.00 32 1020.0
20260906013013 78 302 4.3 7.8 0.00 0.00 0.00 30 1019.9
20260906012515 79 318 3.5 7.0 0.00 0.00 0.00 30 1019.9
20260906012045 79 342 4.3 7.8 0.00 0.00 0.00 30 1019.9
20260906011533 79 347 5.2 7.8 0.00 0.00 0.00 29 1020.1
20260906011014 80 336 3.5 10.4 0.00 0.00 0.00 29 1020.2
20260906010515 80 349 6.1 10.4 0.00 0.00 0.00 29 1020.1
20260906010024 80 332 6.1 10.4 0.00 0.00 0.00 29 1020.1
20260906005553 81 321 7.8 10.4 0.00 0.00 0.00 28 1020.1
20260906005015 82 332 6.1 7.8 0.00 0.00 0.00 27 1020.1
20260906004516 83 334 1.7 3.5 0.00 0.00 0.00 26 1020.1
20260906004025 84 339 1.7 4.3 0.00 0.00 0.00 25 1020.1
20260906003527 84 293 1.7 4.3 0.00 0.00 0.00 25 1020.1
20260906003028 84 334 1.7 5.2 0.00 0.00 0.00 24 1020.1
20260906002536 84 35 2.6 7.0 0.00 0.00 0.00 24 1020.1
20260906002017 85 334 3.5 7.0 0.00 0.00 0.00 24 1020.1
20260906001528 85 340 2.6 5.2 0.00 0.00 0.00 24 1020.0
20260906001028 84 20 2.6 5.2 0.00 0.00 0.00 24 1020.0
20260906000529 84 349 1.7 5.2 0.00 0.00 0.00 24 1020.1
20260906000016 85 52 0.9 6.1 0.00 0.00 0.00 24 1020.1
20260905235517 85 353 3.5 6.1 0.00 0.00 0.00 24 1020.1
20260905235046 85 54 2.6 7.0 0.00 0.00 0.00 24 1020.2
20260905234527 85 104 2.6 6.1 0.00 0.00 0.00 24 1020.1
20260905234035 86 89 3.5 6.1 0.00 0.00 0.00 24 1020.1
20260905233517 86 320 2.6 8.7 0.00 0.00 0.00 23 1020.0
20260905233019 87 20 3.5 8.7 0.00 0.00 0.00 23 1019.8
20260905232521 87 81 4.3 7.8 0.00 0.00 0.00 24 1019.8
20260905232051 87 60 3.5 7.8 0.00 0.00 0.00 24 1019.9
20260905231538 87 57 2.6 8.7 0.00 0.00 0.00 24 1019.8
20260905231019 87 53 3.5 7.8 0.00 0.00 0.00 23 1019.8
20260905230527 87 62 1.7 8.7 0.00 0.00 0.00 23 1019.8
20260905230052 87 62 3.5 8.7 0.00 0.00 0.00 24 1019.9
20260905225553 87 55 4.3 9.6 0.00 0.00 0.00 24 1019.8
20260905225022 86 39 3.5 8.7 0.00 0.00 0.00 24 1019.6
20260905224522 86 65 6.1 8.7 0.00 0.00 0.00 25 1019.6
20260905224024 85 57 4.3 8.7 0.00 0.00 0.00 24 1019.6
20260905223533 85 87 4.3 9.6 0.00 0.00 0.00 24 1019.6
20260905223021 85 122 4.3 11.3 0.00 0.00 0.00 25 1019.5
20260905222522 85 78 5.2 11.3 0.00 0.00 0.00 23 1019.7
20260905222050 86 94 6.1 7.8 0.00 0.00 0.00 23 1019.8
20260905221537 86 144 2.6 12.2 0.00 0.00 0.00 24 1019.8
20260905221039 86 60 7.8 13.0 0.00 0.00 0.00 23 1019.8
20260905220520 86 119 7.8 16.5 0.00 0.00 0.00 23 1019.9
20260905220029 87 148 5.2 16.5 0.00 0.00 0.00 21 1019.9
20260905215529 88 173 9.6 15.6 0.00 0.00 0.00 21 1019.9
20260905215037 88 129 7.0 13.9 0.00 0.00 0.00 22 1019.9
20260905214537 88 126 8.7 13.9 0.00 0.00 0.00 22 1020.1
20260905214025 87 20 6.1 14.8 0.00 0.00 0.00 22 1020.1
20260905213554 86 91 9.6 14.8 0.00 0.00 0.00 23 1020.2